RH
3 3 3 3 3 3 3 3 3 3 4 4 4 5 6 14 18 25 27 29 22 17 20 21 23 20 16 16 17 16 16 14 14 13 16 16 15 13 11 9 7 5 4 7 13
4 4 3 4 4 4 4 4 4 4 5 6 5 6 12 18 21 29 35 34 34 30 25 24 24 24 18 18 20 19 19 16 15 14 16 17 17 14 13 11 8 6 4 6 24
4 4 4 3 3 3 4 4 4 5 6 7 7 8 16 21 25 34 37 33 33 38 32 29 29 29 24 22 23 24 24 20 18 16 16 16 18 17 14 13 11 7 5 6 25
5 4 3 3 4 4 4 5 6 7 7 7 12 15 22 27 33 40 38 34 31 34 36 33 29 25 25 24 25 26 26 23 20 17 18 19 20 20 17 16 14 9 6 5 19
10 8 8 8 8 8 8 8 10 18 22 21 23 24 28 34 39 43 40 38 35 34 33 32 31 28 32 32 30 30 30 29 27 25 23 20 23 23 20 19 16 13 8 6 11
13 12 12 13 14 16 18 24 28 33 35 35 35 35 39 42 41 43 37 35 33 36 38 35 34 36 35 34 34 36 35 34 34 34 32 28 24 24 25 24 20 17 11 8 9
36 30 28 32 34 38 41 43 47 46 46 48 48 46 44 46 45 46 39 33 35 38 37 37 35 37 36 37 37 40 39 36 37 39 39 37 32 28 28 29 26 21 18 10 7
53 48 47 54 54 57 58 55 52 50 50 45 47 46 48 47 47 43 44 42 43 41 42 41 39 40 42 39 35 36 37 36 35 37 42 41 40 35 34 33 32 28 23 16 9
58 55 54 53 56 60 60 61 61 56 54 47 47 46 47 44 48 46 45 44 44 44 44 44 44 41 39 36 36 36 34 35 34 37 44 44 43 41 39 37 36 34 32 23 14
70 66 64 66 64 60 60 62 62 62 64 55 54 53 55 56 50 48 46 46 45 46 44 44 43 42 42 42 40 40 39 40 36 31 35 42 47 44 41 43 41 41 41 36 22
73 76 78 73 68 67 65 62 61 66 67 66 65 63 63 61 59 57 52 50 50 49 51 54 53 51 53 52 50 49 47 45 46 35 28 39 49 58 53 47 51 50 50 48 36
79 76 74 77 72 67 63 57 60 59 59 60 61 58 54 52 52 52 52 53 53 54 55 56 56 54 53 48 48 46 43 43 44 43 34 43 48 61 62 63 61 60 58 61 53
81 80 78 80 71 68 62 60 56 53 53 51 49 48 45 42 41 39 36 39 40 43 48 50 51 51 55 56 54 54 46 49 40 42 49 38 28 61 70 70 70 72 72 70 66
86 74 67 66 64 66 60 57 53 50 52 48 46 48 45 44 41 38 37 34 34 36 38 42 51 54 57 52 50 55 52 44 39 35 30 46 21 41 58 71 71 74 79 77 76
74 71 67 63 61 55 56 53 51 52 51 49 46 50 51 48 44 42 39 37 36 32 36 45 48 58 64 58 54 54 57 49 41 38 30 43 41 32 38 55 71 70 66 73 80
72 72 67 70 62 58 57 56 65 57 58 59 56 55 50 49 47 45 45 42 38 35 40 44 46 50 52 50 36 28 33 31 24 23 23 33 33 28 28 29 42 62 73 76 77
70 72 65 69 72 68 64 63 63 62 57 58 64 62 58 53 51 49 48 48 45 38 44 46 54 51 46 35 24 21 21 18 18 17 17 19 20 26 24 21 25 46 68 84 91
61 61 68 71 67 66 64 63 63 61 62 63 63 56 56 54 50 49 49 51 53 50 41 40 53 67 53 26 18 16 18 19 19 18 19 19 20 19 20 22 21 28 46 67 90
70 58 55 72 73 78 79 68 58 60 60 66 59 54 53 55 55 50 47 49 51 55 56 49 45 42 39 19 17 18 16 21 20 23 23 25 27 30 31 24 27 30 37 35 62
60 61 56 58 62 67 74 69 71 78 83 78 70 62 59 58 58 57 55 52 54 50 44 38 37 32 20 18 18 18 18 22 25 28 32 36 38 38 37 33 29 28 37 44 51
87 71 60 70 67 71 62 66 65 84 97 85 76 71 68 66 67 65 58 62 60 51 41 36 38 30 21 19 20 22 23 26 30 36 44 42 42 43 44 40 38 36 30 37 45
85 79 75 77 81 64 59 74 83 91 98 89 80 80 80 82 78 67 67 68 56 47 43 34 32 28 23 23 22 24 27 32 34 41 42 44 45 54 56 39 32 32 34 36 48
94 89 76 78 76 67 67 71 84 88 97 96 91 89 87 94 78 70 73 57 28 29 31 29 30 29 26 27 28 27 30 45 50 53 48 56 48 67 55 46 39 36 35 39 50
91 88 80 81 73 80 88 72 73 81 97 99 98 95 96 94 94 90 83 42 27 35 41 33 30 28 29 31 36 38 49 74 76 64 51 52 67 85 71 46 34 32 33 63 81
91 85 71 74 90 100 100 80 78 80 85 86 85 90 96 94 90 90 88 73 42 48 49 33 31 30 36 44 47 54 72 85 74 68 70 71 80 78 78 55 32 26 35 58 95
98 89 92 92 87 100 100 86 92 99 98 93 90 100 97 86 86 100 94 74 60 33 29 32 38 40 50 66 84 84 81 77 76 72 76 85 64 94 60 38 41 66 66 80 88
84 89 91 78 87 88 98 100 99 100 99 100 96 100 100 100 100 85 57 54 50 40 40 44 52 80 87 96 100 76 65 74 70 68 82 71 53 35 32 46 78 87 90 91 84
Wind_Speed
14 16 17 19 18 19 19 19 21 22 23 24 24 25 24 22 24 25 19 19 19 18 18 18 20 21 21 20 20 20 21 23 23 23 24 24 25 23 24 24 27 30 27 15 11
16 18 20 23 22 20 19 20 22 24 26 26 24 23 20 21 25 23 23 19 21 19 17 17 17 20 20 21 21 22 22 22 24 25 25 25 24 25 25 24 25 28 26 11 6
22 22 24 26 26 25 23 24 26 27 29 25 23 23 21 23 24 25 21 18 20 17 15 16 19 20 21 22 22 24 25 25 25 26 26 25 26 25 25 25 24 26 26 11 5
28 27 26 27 27 27 28 28 28 27 24 23 24 23 23 24 22 24 21 20 19 18 15 16 18 18 18 21 22 24 24 25 25 27 27 26 26 25 25 26 25 23 26 18 6
28 27 27 28 28 28 26 24 23 21 21 22 23 23 23 25 22 22 21 20 19 19 19 17 18 18 22 24 22 23 24 25 26 27 28 29 28 25 25 25 25 21 23 19 11
25 25 25 25 24 24 24 23 24 23 21 21 20 21 22 24 22 20 21 18 20 23 22 20 20 23 26 25 24 25 27 27 28 29 29 29 30 26 26 25 25 24 20 20 14
24 25 26 25 25 25 25 26 25 23 22 21 22 21 22 22 21 20 19 20 23 24 23 23 24 24 23 25 28 29 28 29 29 31 31 29 31 28 29 28 26 25 22 21 20
26 26 27 25 24 26 24 23 24 22 19 23 20 19 21 22 22 22 23 22 25 26 26 25 23 22 25 26 27 27 28 30 33 33 30 30 29 32 32 31 28 26 25 23 23
28 28 29 26 25 24 24 22 22 23 21 20 21 19 21 22 23 23 26 26 28 29 28 25 24 26 26 27 28 27 29 31 31 31 27 27 27 29 30 30 31 27 27 28 24
29 30 29 27 25 27 28 28 25 23 25 25 24 25 24 25 27 26 27 28 30 28 26 27 26 26 28 30 30 30 30 30 32 33 29 26 26 28 31 28 30 32 31 30 30
31 31 32 30 30 31 31 33 32 29 28 29 29 28 28 27 27 30 28 27 27 29 30 27 30 32 33 33 32 33 31 32 32 33 32 31 23 25 30 30 29 31 33 30 32
33 36 35 34 37 37 34 33 29 28 27 30 30 29 32 35 32 32 34 35 34 33 35 34 33 34 35 35 35 33 32 33 34 34 34 34 30 28 30 31 33 33 34 34 31
35 37 36 35 35 37 35 32 30 31 32 30 30 31 30 30 31 35 36 37 37 37 36 38 38 37 38 36 36 34 36 37 38 37 39 38 35 31 31 33 35 35 36 35 35
34 37 38 37 37 37 36 35 35 35 38 38 36 35 34 34 35 36 39 37 38 40 40 38 37 38 37 36 37 36 37 39 38 39 40 38 37 34 34 32 35 36 37 38 38
38 38 38 39 40 39 39 37 35 39 42 40 39 37 39 39 40 40 40 39 40 40 41 39 40 38 35 37 38 37 34 36 38 40 41 38 41 37 36 35 29 30 32 35 37
46 45 45 43 44 43 43 45 44 43 47 41 41 41 42 45 45 44 41 42 43 44 43 42 40 40 40 38 36 37 37 36 37 38 40 39 41 35 34 32 32 32 31 32 33
50 49 49 49 47 49 50 48 48 47 45 45 45 46 47 48 48 45 44 43 44 44 43 42 42 43 42 41 39 38 37 38 41 39 40 40 41 35 34 30 29 29 29 30 31
53 54 52 51 53 56 55 56 55 52 51 48 50 51 49 50 50 51 51 47 45 46 48 47 47 46 44 40 38 38 37 35 39 40 43 38 40 39 34 31 30 31 30 31 31
58 60 59 57 58 56 58 60 59 56 54 55 57 57 53 52 52 54 55 52 47 44 45 48 49 50 45 41 39 39 38 35 38 40 42 42 40 38 33 30 30 32 33 33 34
67 64 67 64 62 62 62 64 65 65 64 61 60 61 60 58 58 56 56 56 51 48 47 49 51 48 44 43 42 42 41 38 39 43 44 42 41 39 34 34 35 36 34 33 34
64 65 63 65 65 67 68 68 70 67 63 64 63 63 62 63 62 62 62 58 54 49 48 50 53 50 48 44 43 40 40 38 40 43 42 42 41 38 36 36 38 38 38 37 37
69 71 71 69 71 68 71 71 72 70 68 65 67 65 63 63 63 64 63 61 52 52 51 50 53 52 48 45 44 43 40 41 43 44 45 40 44 39 38 38 39 39 38 38 38
76 76 76 75 76 74 75 76 74 73 70 70 70 67 66 66 64 63 62 54 50 52 52 50 54 53 50 47 46 44 44 45 47 48 48 45 44 40 42 43 43 41 41 40 39
86 84 83 81 81 80 80 78 80 78 72 67 66 66 65 64 63 67 58 52 51 51 52 53 54 50 48 47 47 47 50 54 55 52 46 50 44 43 43 43 44 43 42 38 39
90 91 91 87 77 75 77 79 80 78 71 64 65 64 63 63 64 61 58 54 53 55 56 54 54 47 48 49 48 50 58 52 49 46 48 47 48 42 42 47 48 45 41 40 37
83 81 80 79 77 75 76 80 73 65 65 67 68 63 62 62 58 57 55 57 55 54 53 52 53 52 54 53 55 61 57 51 49 46 48 46 47 44 48 46 42 39 39 39 38
82 77 75 87 84 84 75 67 66 67 66 62 64 65 64 61 62 58 57 56 55 54 52 52 50 54 65 63 58 59 49 47 45 45 48 46 44 45 43 40 38 37 38 36 36
Wind_Direction
241 254 265 274 284 292 300 305 310 308 310 314 309 316 324 328 325 333 337 335 319 308 309 310 318 317 315 315 315 315 316 312 309 311 315 317 320 323 325 330 335 334 334 339 337
255 262 268 277 290 300 302 299 298 300 301 304 306 313 317 318 321 332 332 336 324 316 315 311 313 316 314 313 317 315 316 314 313 315 317 315 316 322 323 329 332 333 333 343 338
273 277 282 286 290 293 294 295 296 295 299 303 308 313 316 317 324 327 329 338 339 318 321 320 318 319 316 315 317 316 318 317 318 316 317 316 316 318 321 325 329 329 333 336 316
277 279 280 280 283 286 290 292 299 309 315 318 320 320 315 319 323 326 325 333 337 341 330 326 326 325 322 317 316 317 317 317 316 316 316 315 314 312 318 323 326 326 330 329 287
279 280 282 283 285 286 291 295 305 311 316 316 316 315 315 317 320 323 325 331 336 333 335 329 325 327 326 321 315 317 317 316 314 314 314 313 313 310 312 317 319 323 322 321 287
277 277 279 283 285 289 293 300 303 308 310 312 311 312 313 315 318 319 325 333 335 330 331 326 322 324 324 323 320 320 316 316 315 313 312 313 310 311 307 314 313 316 314 316 285
287 285 286 292 293 295 297 299 299 303 309 310 309 311 312 312 309 312 314 312 319 325 324 324 318 319 322 320 319 319 318 318 316 314 314 311 310 310 307 311 308 309 310 306 308
285 286 287 290 293 294 298 305 306 304 308 305 310 313 313 311 311 313 312 309 313 318 320 318 317 319 318 317 319 318 317 316 318 317 317 314 310 307 305 305 306 307 306 301 298
280 280 282 283 289 302 306 307 311 311 313 309 312 316 313 310 311 313 311 308 310 313 315 317 314 315 314 312 312 312 312 312 313 312 314 312 307 305 302 303 303 304 302 297 292
278 279 278 283 294 299 303 304 302 300 302 300 303 308 306 308 309 307 305 304 304 304 308 308 304 303 303 304 302 304 304 306 308 315 315 310 308 307 305 297 297 301 301 299 293
279 280 280 281 289 295 303 304 305 305 309 309 309 308 308 306 306 309 306 303 302 301 302 302 303 302 303 303 302 304 302 303 303 305 307 304 303 294 291 295 289 290 295 295 290
282 285 281 281 287 291 296 298 298 299 305 308 308 310 317 320 318 317 313 310 308 307 306 304 302 299 298 298 298 298 297 297 300 300 301 299 302 296 292 290 288 288 289 289 282
280 284 286 285 287 289 295 297 299 302 304 309 310 309 312 319 322 325 322 318 317 314 311 307 303 299 296 296 296 297 296 298 298 296 298 299 298 296 291 289 287 285 283 284 282
282 284 284 286 288 289 292 295 300 300 300 306 309 309 313 318 317 315 313 313 314 313 311 307 302 298 297 296 297 297 296 296 294 295 297 300 294 301 297 292 288 284 281 280 276
279 281 281 284 287 287 287 289 301 305 300 304 305 306 305 307 308 310 309 306 303 304 303 302 300 298 294 295 296 297 295 294 296 298 296 299 297 299 300 301 296 290 284 278 276
282 284 285 283 281 281 281 283 290 302 304 304 305 307 306 305 306 307 304 303 300 301 301 299 298 297 299 300 299 298 297 298 297 299 297 296 299 305 303 303 302 297 289 280 273
280 282 284 284 281 281 281 283 288 290 302 306 305 305 303 305 303 300 299 297 293 295 295 293 292 296 298 296 295 295 297 302 300 303 305 306 301 309 308 306 299 291 286 279 275
277 278 278 279 280 284 285 285 286 290 297 302 302 299 296 299 302 301 300 296 291 292 293 292 292 292 293 295 295 299 303 304 303 306 304 306 308 308 309 305 301 295 290 283 278
278 277 277 277 279 280 284 285 285 289 293 298 299 295 296 294 295 297 297 294 290 284 284 285 286 288 291 293 298 299 304 302 302 302 301 303 305 309 307 301 295 295 293 287 282
277 277 279 278 279 280 281 283 286 291 294 294 295 295 294 292 294 295 294 293 287 283 285 285 285 287 290 293 297 300 301 301 301 301 304 306 307 306 303 296 297 294 291 289 286
276 274 276 281 282 282 279 280 284 286 287 289 292 290 289 289 291 293 292 291 286 282 282 283 284 287 290 295 298 300 300 297 297 301 300 301 308 305 303 300 294 291 291 291 289
272 274 276 275 278 277 278 281 282 284 283 285 286 286 286 286 288 288 290 289 283 279 279 283 283 286 288 292 296 297 297 297 297 298 296 297 301 302 300 295 293 292 292 289 284
268 272 276 275 274 275 278 280 279 279 278 281 281 282 283 282 283 283 283 283 279 278 279 280 280 282 285 288 291 293 294 294 294 294 297 291 301 299 298 296 293 291 291 289 281
268 268 271 272 275 275 276 277 278 278 277 276 277 277 278 279 278 279 278 276 274 274 277 278 278 282 286 289 291 291 291 296 296 294 294 293 293 293 296 294 289 290 291 287 285
264 268 271 272 270 270 271 273 275 278 276 274 274 274 274 273 273 272 274 272 271 275 274 274 276 278 282 285 286 288 293 291 286 290 285 291 288 290 290 287 288 289 289 286 285
263 265 268 267 266 266 267 271 273 272 271 272 273 269 269 270 269 269 268 269 269 269 270 272 276 278 281 284 285 287 290 286 284 284 283 289 288 287 286 287 285 284 284 284 284
265 265 262 262 263 266 269 268 268 266 268 270 268 268 268 267 267 265 265 266 268 268 269 270 274 280 286 286 282 285 286 281 279 280 283 284 285 284 282 279 281 283 283 282 281